Regional Weather Roundup
Issued by NWS

Home | Current Version | Previous Version | Text Only | Print | Product List | Glossary Off
Versions: 1 2 3 4 5 6 7 8 9 10 11 12 13 14 15 16 17 18 19 20 21 22 23 24 25 26 27 28 29 30 31 32 33 34 35 36 37 38 39 40 41 42 43 44 45 46 47 48 49 50

000
ASUS43 KFSD 271510
RWRSD

WEATHER ROUNDUP FOR SOUTH DAKOTA
NATIONAL WEATHER SERVICE SIOUX FALLS SD
900 AM CST TUE JAN 27 2015

NOTE: "FAIR" INDICATES FEW OR NO CLOUDS BELOW 12,000 FEET WITH NO
SIGNIFICANT WEATHER AND/OR OBSTRUCTIONS TO VISIBILITY.


SDZ001>005-009-010-012>017-271600-
NORTHWEST AND NORTH CENTRAL SOUTH DAKOTA

CITY           SKY/WX    TMP DP  RH WIND       PRES   REMARKS
BUFFALO          N/A     41  28  60 W12       29.86R
FAITH            N/A     39  29  67 SW8       29.91R
MOBRIDGE       CLEAR     32  29  88 SE9       29.92S WCI  24
$$

SDZ012>016-024>037-041>051-057-063-072>074-271600-
SOUTHWEST AND SOUTH CENTRAL SOUTH DAKOTA

CITY           SKY/WX    TMP DP  RH WIND       PRES   REMARKS
RAPID CTY ARPT PTCLDY    51  25  36 NW13      29.96R
PIERRE         CLEAR     32  29  88 SE8       29.95R WCI  25
CUSTER         CLEAR     48  19  31 W6        30.07S
ELLSWORTH AFB  CLEAR     42  26  53 W7        29.96R
PHILIP         PTCLDY    36  30  79 W9        29.94R
PINE RIDGE     CLEAR     47  28  47 W12       30.01R
SPEARFISH      FAIR      48  25  40 CALM      30.00R
WINNER         FAIR      36  30  79 S6        29.96S
$$

SDZ004>011-016>023-039-040-271600-
NORTHEAST SOUTH DAKOTA

CITY           SKY/WX    TMP DP  RH WIND       PRES   REMARKS
ABERDEEN       CLEAR     32  29  88 SE8       30.03R WCI  25
WATERTOWN      CLEAR     30  28  92 S8        30.04S WCI  22
SISSETON         N/A     29  29 100 S14       30.06F WCI  18
$$

SDZ017-020-022-023-036>040-048>070-271600-
SOUTHEAST SOUTH DAKOTA

CITY           SKY/WX    TMP DP  RH WIND       PRES   REMARKS
SIOUX FALLS    FOG       29  28  96 SE7       30.09S VSB 1/4 WCI  22
HURON          CLEAR     31  29  92 SE10      30.03F WCI  22
CHAMBERLAIN    CLEAR     33  31  91 SE10      29.98S WCI  25
MITCHELL       CLEAR     33  31  92 SE12      30.06S WCI  24
YANKTON        SUNNY     30  28  93 E7        30.09S WCI  23
$$

ABBREVIATIONS USED IN REMARKS
   TC - TEMPERATURE IN CELSIUS
  WCI - WIND CHILL INDEX
   HX - HEAT INDEX
  VSB - VISIBILITY



USA.gov is the U.S. government's official web portal to all federal, state and local government web resources and services.